STARLINK-4789 (53868 NORAD) Tracking and Keplerian Element Data

This shows tracking and keplerian element data for the satellite.

Feedback or suggestion? Click here.




ElementValue
Catalog53868
NameSTARLINK-4789
Epoch Orbit130
Epoch Day324.91667824
Epoch Year2022
RAAN307.5905
Inclination53.2155
Eccentricity0.0003692
Argument of Perigee7.9587
Mean Anonmoly234.9336
Mean Motion15.73173701
Decay Rate0.00067677
L11 53868U 22114BC 22324.91667824 .00067677 00000+0 48316-3 0 9993
L22 53868 53.2155 307.5905 0003692 7.9587 234.9336 15.73173701 1307



Live tracking and technical data element details for STARLINK-4789 (NORAD 53868). STARLINK-4789 can be tracked NOW for your location showing map with azimuth and elevation plus other details from your city location.







IsCatalogInMostPopularTable: catalog: 53868, numindb: -1

Insert: records affected: 1


GetName: 53868 STARLINK-4789

Hit Count: inserted at: Thu, 08 Dec 2022 09:43:30 GMT